TimePDT,TemperatureF,Dew PointF,Humidity,Sea Level PressureIn,VisibilityMPH,Wind Direction,Wind SpeedMPH,Gust SpeedMPH,PrecipitationIn,Events,Conditions,WindDirDegrees,DateUTC
12:53 AM,55.9,30.0,37,30.18,10.0,ESE,6.9,-,N/A,,Clear,120,2012-10-06 07:53:00
1:53 AM,55.9,32.0,40,30.18,10.0,Calm,Calm,-,N/A,,Clear,0,2012-10-06 08:53:00
2:53 AM,53.6,33.8,47,30.18,10.0,Calm,Calm,-,N/A,,Clear,0,2012-10-06 09:53:00
3:53 AM,48.0,36.0,63,30.17,10.0,Calm,Calm,-,N/A,,Clear,0,2012-10-06 10:53:00
4:53 AM,48.0,35.1,61,30.16,10.0,Calm,Calm,-,N/A,,Clear,0,2012-10-06 11:53:00
5:53 AM,46.9,41.0,80,30.17,10.0,WNW,5.8,-,N/A,,Clear,290,2012-10-06 12:53:00
6:53 AM,42.8,37.4,81,30.18,10.0,WNW,4.6,-,N/A,,Partly Cloudy,290,2012-10-06 13:53:00
7:53 AM,44.1,37.0,76,30.18,10.0,West,5.8,-,N/A,,Clear,270,2012-10-06 14:53:00
8:53 AM,48.9,39.0,69,30.18,10.0,WNW,6.9,-,N/A,,Clear,290,2012-10-06 15:53:00
9:53 AM,55.0,37.9,53,30.18,10.0,West,3.5,-,N/A,,Clear,260,2012-10-06 16:53:00
10:53 AM,66.9,28.9,24,30.16,10.0,ESE,11.5,16.1,N/A,,Clear,110,2012-10-06 17:53:00
11:53 AM,71.1,19.9,14,30.14,10.0,East,19.6,31.1,N/A,,Clear,90,2012-10-06 18:53:00
12:53 PM,73.0,19.0,13,30.13,10.0,East,21.9,27.6,N/A,,Clear,80,2012-10-06 19:53:00
1:53 PM,73.9,16.0,11,30.10,10.0,East,23.0,31.1,0.01,,Partly Cloudy,80,2012-10-06 20:53:00
2:53 PM,75.0,17.1,11,30.09,10.0,East,21.9,32.2,N/A,,Partly Cloudy,80,2012-10-06 21:53:00
3:53 PM,73.9,16.0,11,30.08,10.0,East,23.0,29.9,N/A,,Partly Cloudy,80,2012-10-06 22:53:00
4:53 PM,73.0,18.0,12,30.06,10.0,East,27.6,34.5,N/A,,Clear,80,2012-10-06 23:53:00
5:53 PM,71.1,19.9,14,30.06,10.0,East,23.0,34.5,N/A,,Partly Cloudy,80,2012-10-07 00:53:00
6:53 PM,69.1,23.0,18,30.06,10.0,East,16.1,26.5,N/A,,Clear,80,2012-10-07 01:53:00
7:53 PM,66.0,24.1,20,30.06,10.0,East,13.8,-,N/A,,Clear,80,2012-10-07 02:53:00
8:53 PM,64.0,27.0,25,30.06,10.0,East,9.2,-,N/A,,Clear,80,2012-10-07 03:53:00
9:53 PM,64.0,26.1,24,30.06,10.0,East,10.4,-,N/A,,Clear,90,2012-10-07 04:53:00
10:53 PM,57.9,28.9,33,30.06,10.0,ESE,4.6,-,N/A,,Clear,120,2012-10-07 05:53:00
11:53 PM,57.0,28.0,33,30.06,10.0,Calm,Calm,-,N/A,,Clear,0,2012-10-07 06:53:00